DELTA 1 DEB, 7133

Orbit data source: Space-Track

DELTA 1 DEB, 7133 is space debris in SSO originally from a launch on Tue, 06 Nov 1973 UTC launched from the Air Force Western Test Range (AFWTR). Debris objects in space refer to the collection of defunct objects orbiting the Earth. Examples of debris include non-operational satellites, rocket bodies, and fragments generated from explosions, collisions, or faulty payload assembly.

Loading next visibility...
Identifier
7133, 1973-086CX
Orbit
SSO
Country
Flag of USUS
Related business
Manufacturer
Unknown
Mission
Spacecraft
Bus & Motor
Unknown
Mass
Unknown
Launch date (UTC)
1973-11-06 (53 years ago)
Launch vehicle
Unknown
Launch site
Air Force Western Test Range (AFWTR)
Object type
Payload
Rocket body
Debris
Shape & HBR
Unknown shape, 0.1 m
Radar Cross Section
Medium (>0.1 m² and <1 m²)

Expand to show TLE details & history
Last TLE update: 2 days ago

TLE from 2 days ago
0 DELTA 1 DEB
1  7133U 73086CX  26171.38518493  .00000032  00000-0  55334-3 0  9994
2  7133 101.6651 205.6198 0032984 321.4020  54.7670 12.41593283380744
Epoch: 2026-06-20T09:14Z
TLE epoch observation values (Epoch: 2026-06-20T09:14:39.977Z)
Latitude
16.11381°
Longitude
154.95005°
Altitude
1,486.843 km
Speed
7.128 km/s
True Right ascension
13h 28m 52s
True Declination
16° 01' 51"
Sunlit
Object was in daylight at epoch
Visualization orbit readout
Latitude
Unknown
Longitude
Unknown
Altitude
Unknown
Speed
Unknown
Apparent Right ascension
Unknown
Apparent Declination
Unknown
Sunlit
N/A
Visualization observer readout
Local Sidereal Time
07:08:04
Azimuth
Unknown
Elevation
Unknown
Doppler factor
Unknown
Orbital elements
Apogee altitude
1,523.386 km
Perigee altitude
1,471.433 km
Semi-major axis
7,875.546 km
Eccentricity
0.0033
Inclination
101.6651°
RAAN
205.6198°
Arg. of periapsis
321.402°
True anomaly
55.07646°
Mean anomaly
54.767°
Eccentric anomaly
54.92166°
Mean motion
3.10543 °/min
Orbital period
115.93 mins
BSTAR
0.00055334
Loading maneuver chart data...
Computing Atmospheric mass density...
Loading historical data...
Loading historical data...
Loading historical data...
Loading historical data...
Loading historical data...
Loading historical data...
Loading historical data...

Documentation

Showing up to 5 results
|